Tracking 29892 objects as of 21-Nov-2024
HD Live streaming from Space Station
objects crossing your sky now

ONEWEB-0008

Track ONEWEB-0008 now!
10-day predictions


NORAD ID: 44059
Int'l Code: 2019-010C
Perigee: 1,203.5 km
Apogee: 1,206.3 km
Inclination: 87.9 °
Period: 109.4 minutes
Semi major axis: 7575 km
RCS: Unknown
Launch date: February 27, 2019
Source: United Kingdom (UK)
Launch site: FRENCH GUIANA (FRGUI)
Your satellite tracking list
Your tracking list is empty




NASA's NSSDC Master Catalog

Two Line Element Set (TLE):
1 44059U 19010C   24325.07081156  .00000056  00000-0  11271-3 0  9993
2 44059  87.9092 343.1646 0001843  99.9784 260.1555 13.16596923276181
Source of the keplerian elements: AFSPC